TimeEDT,TemperatureF,Dew PointF,Humidity,Sea Level PressureIn,VisibilityMPH,Wind Direction,Wind SpeedMPH,Gust SpeedMPH,PrecipitationIn,Events,Conditions,WindDirDegrees,DateUTC
12:53 AM,68.0,64.0,87,29.80,10.0,Calm,Calm,-,N/A,,Clear,0,2013-07-01 04:53:00
1:53 AM,66.0,64.0,93,29.80,10.0,NNW,3.5,-,N/A,,Partly Cloudy,340,2013-07-01 05:53:00
2:53 AM,66.0,64.0,93,29.79,8.0,NW,3.5,-,N/A,,Clear,320,2013-07-01 06:53:00
3:53 AM,66.9,64.0,90,29.78,9.0,Calm,Calm,-,N/A,,Clear,0,2013-07-01 07:53:00
4:53 AM,66.0,64.0,93,29.79,8.0,Calm,Calm,-,N/A,,Clear,0,2013-07-01 08:53:00
5:53 AM,66.0,64.0,93,29.81,8.0,Calm,Calm,-,N/A,,Partly Cloudy,0,2013-07-01 09:53:00
6:53 AM,66.0,64.0,93,29.83,6.0,Calm,Calm,-,N/A,,Scattered Clouds,0,2013-07-01 10:53:00
7:53 AM,66.0,64.9,96,29.83,5.0,ENE,3.5,-,0.01,Rain,Light Rain,60,2013-07-01 11:53:00
8:53 AM,66.0,64.9,96,29.84,3.0,Calm,Calm,-,0.01,Rain,Light Rain,0,2013-07-01 12:53:00
9:03 AM,66.2,66.2,100,29.86,5.0,Calm,Calm,-,0.00,Rain,Light Rain,0,2013-07-01 13:03:00
9:46 AM,69.8,66.2,88,29.86,6.0,Calm,Calm,-,0.01,,Mostly Cloudy,0,2013-07-01 13:46:00
9:53 AM,69.1,66.9,93,29.84,6.0,East,3.5,-,0.01,,Scattered Clouds,80,2013-07-01 13:53:00
10:53 AM,72.0,66.9,84,29.86,10.0,Calm,Calm,-,N/A,,Partly Cloudy,0,2013-07-01 14:53:00
11:20 AM,71.6,68.0,88,29.89,4.0,WNW,3.5,-,0.00,Rain-Thunderstorm,Rain,300,2013-07-01 15:20:00
11:35 AM,69.8,68.0,94,29.89,9.0,SW,5.8,-,0.01,,Overcast,230,2013-07-01 15:35:00
11:49 AM,69.8,68.0,94,29.89,1.5,Calm,Calm,-,0.01,Rain-Thunderstorm,Thunderstorms and Rain,0,2013-07-01 15:49:00
11:53 AM,70.0,68.0,93,29.87,1.2,Calm,Calm,-,0.01,Rain-Thunderstorm,Thunderstorms and Rain,0,2013-07-01 15:53:00
11:59 AM,69.8,69.8,100,29.89,3.0,WSW,3.5,-,0.00,Rain-Thunderstorm,Light Thunderstorms and Rain,250,2013-07-01 15:59:00
12:44 PM,69.8,64.4,83,29.87,10.0,Variable,3.5,-,0.01,,Mostly Cloudy,0,2013-07-01 16:44:00
12:53 PM,72.0,64.9,78,29.85,10.0,North,3.5,-,0.01,,Scattered Clouds,350,2013-07-01 16:53:00
1:53 PM,75.9,64.9,69,29.84,10.0,Calm,Calm,-,0.01,,Clear,0,2013-07-01 17:53:00
2:53 PM,79.0,64.0,60,29.83,10.0,WNW,3.5,-,0.01,,Clear,300,2013-07-01 18:53:00
3:53 PM,81.0,66.0,60,29.82,10.0,NNE,4.6,-,0.01,,Partly Cloudy,20,2013-07-01 19:53:00
4:53 PM,78.1,66.0,66,29.83,10.0,NE,4.6,-,N/A,,Partly Cloudy,50,2013-07-01 20:53:00
5:24 PM,75.2,64.4,69,29.86,10.0,ENE,4.6,-,N/A,Thunderstorm,Thunderstorm,60,2013-07-01 21:24:00
5:53 PM,75.0,66.0,73,29.84,10.0,Calm,Calm,-,N/A,Thunderstorm,Mostly Cloudy,0,2013-07-01 21:53:00
6:20 PM,71.6,68.0,88,29.88,3.0,WNW,3.5,-,N/A,Rain,Rain,290,2013-07-01 22:20:00
6:53 PM,70.0,69.1,97,29.86,10.0,South,4.6,-,N/A,Rain,Light Rain,170,2013-07-01 22:53:00
7:07 PM,69.8,68.0,94,29.90,9.0,SW,8.1,-,0.00,Rain-Thunderstorm,Light Thunderstorms and Rain,220,2013-07-01 23:07:00
7:38 PM,69.8,68.0,94,29.87,4.0,ENE,11.5,-,N/A,Rain-Thunderstorm,Rain,70,2013-07-01 23:38:00
7:53 PM,69.1,66.9,93,29.84,4.0,East,15.0,-,N/A,Rain-Thunderstorm,Rain,100,2013-07-01 23:53:00
8:03 PM,69.8,66.2,88,29.85,6.0,East,16.1,-,N/A,Rain,Rain,100,2013-07-02 00:03:00
8:53 PM,66.9,64.0,90,29.86,10.0,North,3.5,-,N/A,,Partly Cloudy,360,2013-07-02 00:53:00
9:53 PM,64.9,63.0,93,29.88,10.0,WNW,3.5,-,N/A,,Clear,290,2013-07-02 01:53:00
10:53 PM,63.0,63.0,100,29.89,10.0,Calm,Calm,-,0.01,,Clear,0,2013-07-02 02:53:00
11:53 PM,63.0,63.0,100,29.92,9.0,Calm,Calm,-,N/A,,Clear,0,2013-07-02 03:53:00
11:58 PM,62.6,62.6,100,29.93,1.2,Calm,Calm,-,N/A,,Partly Cloudy,0,2013-07-02 03:58:00